Zurück zum Katalog

FENGYUN 1C DEB

AktivPO
NORAD 33684·DEBRIS·🇨🇳 China

Gestartet May 10, 1999 von Taiyuan Satellite Launch Center

Loading…

Nächste Überflüge (nächste 24 Stunden)

TLE

AktuellSource: Space-Track

Epoche: Sep 12, 2026, 05:23 UTC

1 33684U 99025DFV 26255.22464849  .00009953  00000-0  73828-3 0  9995
2 33684  99.0414 348.9461 0267544 204.6481 154.1746 14.78945109970249

Verfolge FENGYUN 1C DEB in Echtzeit mit AllMySat

Download on the App Store